Ozark, AL

8:04 AM CDT on August 23, 2017 (GMT -0500)
Cairns Army Air Field

Weather History for KOZR - November, 2012

Change the Weather History Date:

Thursday, November 1, 2012

  Actual Average Record
Temperature  
Mean Temperature 60 °F -  
Max Temperature 72 °F 72 °F 87 °F (2016)
Min Temperature 47 °F 49 °F 37 °F (2008)
Degree Days  
Heating Degree Days 4    
Growing Degree Days 10 (Base 50)    
Moisture  
Dew Point 42 °F    
Average Humidity 59    
Maximum Humidity 94    
Minimum Humidity 29    
Precipitation  
Precipitation 0.00 in - - ()
Sea Level Pressure  
Sea Level Pressure 30.00 in    
Wind  
Wind Speed 4 mph (NW)    
Max Wind Speed 12 mph    
Max Gust Speed 17 mph    
Visibility 10 miles    
Events      
Averages and records for this station are not official NWS values.
T = Trace of Precipitation, MM = Missing Value Source: NWS Daily Summary

Daily Weather History Graph

Daily Weather History Graph

Search for Another Location

Airport or City:

Trip Planner

Search our weather history database for the weather conditions in past years. The results will help you decide how hot, cold, wet, or windy it might be!

Date:

Astronomy

Nov. 01, 2012 Rise Set
Actual Time 6:58 AM CDT 5:53 PM CDT
Civil Twilight 6:33 AM CDT 6:18 PM CDT
Nautical Twilight 6:05 AM CDT 6:47 PM CDT
Astronomical Twilight 5:36 AM CDT 7:15 PM CDT
Moon 7:58 PM CDT (11/1) 9:22 AM CDT (11/1)
Length of Visible Light 11h 44m
Length of Day
10h 54m
Waning Gibbous, 93% of the Moon is Illuminated
Nov 1
Waning Gibbous
Nov 6
Last Quarter
Nov 13
New
Nov 20
First Quarter
Nov 28
Full

Hourly Weather History & Observations

Time (CDT) Temp. Dew Point Humidity Pressure Visibility Wind Dir Wind Speed Gust Speed Precip Events Conditions
12:55 AM 56.8 °F 49.3 °F 76% 29.96 in 10.0 mi West 4.6 mph - N/A   Mostly Cloudy
1:55 AM 56.1 °F 49.6 °F 79% 29.97 in 10.0 mi WNW 4.6 mph - N/A   Mostly Cloudy
2:55 AM 51.6 °F 47.7 °F 86% 29.96 in 10.0 mi Calm Calm - N/A   Clear
3:55 AM 50.4 °F 47.5 °F 90% 29.97 in 10.0 mi Calm Calm - N/A   Clear
4:55 AM 49.3 °F 47.7 °F 94% 29.98 in 10.0 mi Calm Calm - N/A   Clear
5:55 AM 49.5 °F 45.7 °F 87% 29.99 in 10.0 mi Calm Calm - N/A   Partly Cloudy
6:55 AM 50.4 °F 43.7 °F 78% 30.00 in 10.0 mi NNW 3.5 mph - N/A   Clear
7:55 AM 52.0 °F 43.7 °F 73% 30.02 in 10.0 mi North 3.5 mph - N/A   Clear
8:55 AM 57.7 °F 34.2 °F 41% 30.04 in 10.0 mi North 6.9 mph - N/A   Clear
9:55 AM 62.1 °F 31.8 °F 32% 30.06 in 10.0 mi NNW 6.9 mph - N/A   Clear
10:55 AM 64.4 °F 33.8 °F 32% 30.07 in 10.0 mi Variable 6.9 mph - N/A   Clear
11:55 AM 67.5 °F 34.0 °F 29% 30.04 in 10.0 mi NNW 6.9 mph - N/A   Clear
12:55 PM 69.3 °F 36.7 °F 30% 30.01 in 10.0 mi West 6.9 mph - N/A   Clear
1:55 PM 71.1 °F 38.3 °F 30% 29.99 in 10.0 mi West 9.2 mph - N/A   Clear
2:55 PM 72.0 °F 39.9 °F 31% 29.96 in 10.0 mi WNW 11.5 mph 17.3 mph N/A   Clear
3:55 PM 72.1 °F 40.6 °F 32% 29.96 in 10.0 mi WNW 8.1 mph - N/A   Clear
4:55 PM 70.5 °F 41.9 °F 35% 29.97 in 10.0 mi NW 6.9 mph - N/A   Clear
5:55 PM 65.7 °F 42.3 °F 43% 29.99 in 10.0 mi WNW 4.6 mph - N/A   Clear
6:55 PM 62.2 °F 43.3 °F 50% 30.00 in 10.0 mi WNW 3.5 mph - N/A   Clear
7:55 PM 58.6 °F 44.1 °F 58% 30.01 in 10.0 mi WNW 3.5 mph - N/A   Clear
8:55 PM 54.3 °F 44.2 °F 69% 30.03 in 10.0 mi WNW 3.5 mph - N/A   Clear
9:55 PM 56.8 °F 43.5 °F 61% 30.04 in 10.0 mi NW 5.8 mph - N/A   Clear
10:55 PM 49.3 °F 45.0 °F 85% 30.04 in 10.0 mi Calm Calm - N/A   Clear
11:55 PM 47.7 °F 43.7 °F 86% 30.04 in 10.0 mi Calm Calm - N/A   Clear